Simultaneous Nadir Overpasses (SNOs) Predictions

Prediction of SNOs between NOAA-21 and LANDSAT-8 Satellite Orbit:

Table of predicted SNOs for the next 14.0 days since TLE Epoch: 8/24/2024
Index Date (NOAA-21) Time (NOAA-21) Lat,Lon (NOAA-21) SZA (NOAA-21 ) Date (LANDSAT-8) Time (LANDSAT-8) Lat,Lon (LANDSAT-8) SZA (LANDSAT-8 ) Distance(km) Time Diff (sec)
1 08/24/2024 14:03:18 -70.61, 144.72 120.22 08/24/2024 14:04:29 -70.50, 145.84 120.37 42.99 71
2 08/24/2024 14:53:54 70.08, -47.14 59.25 08/24/2024 14:54:02 70.07, -47.14 59.24 1.30 8
3 08/24/2024 15:44:36 -69.98, 120.33 120.85 08/24/2024 15:43:32 -69.96, 120.33 120.87 2.85 64
4 08/27/2024 06:20:03 -70.15, -98.77 119.77 08/27/2024 06:21:04 -70.14, -98.80 119.79 1.59 61
5 08/27/2024 07:10:47 70.05, 68.69 60.14 08/27/2024 07:10:31 70.03, 68.70 60.13 1.93 16
6 08/27/2024 08:01:19 -69.42,-123.06 120.50 08/27/2024 08:00:09 -69.49,-124.43 120.39 53.89 70
7 08/29/2024 22:36:56 -70.14, 17.04 118.84 08/29/2024 22:37:32 -70.11, 17.05 118.87 2.65 36
8 08/29/2024 23:27:39 69.98,-175.42 61.02 08/29/2024 23:26:59 70.00,-175.46 61.04 2.60 40
9 09/01/2024 14:03:13 70.60, -35.23 62.60 09/01/2024 14:04:23 70.46, -34.18 62.43 42.22 70
10 09/01/2024 14:53:47 -70.08, 132.91 117.94 09/01/2024 14:53:58 -70.09, 132.91 117.93 0.60 11
11 09/01/2024 15:44:31 69.98, -59.63 61.98 09/01/2024 15:43:25 69.97, -59.61 61.97 1.51 66
12 09/04/2024 06:19:57 70.14, 81.28 63.10 09/04/2024 06:20:54 70.16, 81.28 63.11 1.95 57
13 09/04/2024 07:10:39 -70.04,-111.24 117.00 09/04/2024 07:10:24 -70.06,-111.23 116.98 2.42 15
14 09/04/2024 08:01:10 69.25, 57.23 62.21 09/04/2024 08:00:02 69.33, 55.42 62.33 71.69 68
15 09/06/2024 22:36:49 70.12,-162.89 64.07 09/06/2024 22:37:19 70.14,-162.85 64.08 2.52 30
16 09/06/2024 23:27:31 -70.01, 4.59 116.03 09/06/2024 23:26:49 -70.04, 4.64 116.01 3.45 42



Historial Predications of SNOs between NOAA-21 and LANDSAT-8
